Crookston, MN

9:28 PM CDT on April 24, 2017 (GMT -0500)
Crookston Municipal-Kirkwood

Weather History for KCKN - December, 2012

Change the Weather History Date:

Wednesday, December 5, 2012

  Actual Average Record
Temperature  
Mean Temperature 24 °F -  
Max Temperature 35 °F 25 °F 37 °F (2015)
Min Temperature 12 °F 11 °F -18 °F (2007)
Degree Days  
Heating Degree Days 42    
Moisture  
Dew Point 18 °F    
Average Humidity 71    
Maximum Humidity 92    
Minimum Humidity 55    
Precipitation  
Precipitation 0.00 in - - ()
Sea Level Pressure  
Sea Level Pressure 29.97 in    
Wind  
Wind Speed 13 mph (South)    
Max Wind Speed 26 mph    
Max Gust Speed 32 mph    
Visibility 10 miles    
Events      
Averages and records for this station are not official NWS values.
T = Trace of Precipitation, MM = Missing Value Source: NWS Daily Summary

Daily Weather History Graph

Daily Weather History Graph

Search for Another Location

Airport or City:

Trip Planner

Search our weather history database for the weather conditions in past years. The results will help you decide how hot, cold, wet, or windy it might be!

Date:

Astronomy

Dec. 05, 2012 Rise Set
Actual Time 7:59 AM CST 4:34 PM CST
Civil Twilight 7:24 AM CST 5:10 PM CST
Nautical Twilight 6:45 AM CST 5:49 PM CST
Astronomical Twilight 6:07 AM CST 6:26 PM CST
Moon 11:48 PM CST (12/5) 12:03 PM CST (12/5)
Length of Visible Light 9h 46m
Length of Day
8h 34m
Waning Gibbous, 59% of the Moon is Illuminated
Dec 5
Waning Gibbous
Dec 6
Last Quarter
Dec 13
New
Dec 19
First Quarter
Dec 28
Full

Hourly Weather History & Observations

Time (CST) Temp. Windchill Dew Point Humidity Pressure Visibility Wind Dir Wind Speed Gust Speed Precip Events Conditions
12:15 AM 12.2 °F 1.7 °F 10.4 °F 92% 30.35 in 10.0 mi SE 6.9 mph - N/A   Clear
12:34 AM 12.2 °F 0.7 °F 10.4 °F 92% 30.35 in 10.0 mi ESE 8.1 mph - N/A   Clear
12:54 AM 12.2 °F 2.9 °F 10.4 °F 92% 30.34 in 10.0 mi SE 5.8 mph - N/A   Clear
1:14 AM 14.0 °F 2.9 °F 10.4 °F 86% 30.34 in 10.0 mi SE 8.1 mph - N/A   Clear
1:55 AM 14.0 °F 2.9 °F 10.4 °F 86% 30.33 in 10.0 mi SE 8.1 mph - N/A   Clear
2:15 AM 14.0 °F 2.9 °F 10.4 °F 86% 30.32 in 10.0 mi SE 8.1 mph - N/A   Clear
2:34 AM 14.0 °F 3.9 °F 10.4 °F 86% 30.32 in 10.0 mi SSE 6.9 mph - N/A   Clear
2:55 AM 14.0 °F 3.9 °F 10.4 °F 86% 30.31 in 10.0 mi SE 6.9 mph - N/A   Clear
3:14 AM 14.0 °F 2.9 °F 10.4 °F 86% 30.30 in 10.0 mi SSE 8.1 mph - N/A   Clear
3:34 AM 14.0 °F 2.9 °F 10.4 °F 86% 30.29 in 10.0 mi SSE 8.1 mph - N/A   Clear
3:55 AM 15.8 °F 3.4 °F 12.2 °F 86% 30.27 in 10.0 mi SSE 10.4 mph - N/A   Clear
4:14 AM 15.8 °F 3.4 °F 12.2 °F 86% 30.26 in 10.0 mi SSE 10.4 mph - N/A   Clear
4:34 AM 15.8 °F 3.4 °F 12.2 °F 86% 30.25 in 10.0 mi SSE 10.4 mph - N/A   Clear
4:55 AM 15.8 °F 2.7 °F 12.2 °F 86% 30.25 in 10.0 mi SSE 11.5 mph - N/A   Clear
5:14 AM 17.6 °F 5.7 °F 12.2 °F 79% 30.24 in 10.0 mi SSE 10.4 mph - N/A   Clear
5:34 AM 17.6 °F 5.0 °F 12.2 °F 79% 30.23 in 10.0 mi SSE 11.5 mph - N/A   Clear
5:55 AM 17.6 °F 5.0 °F 12.2 °F 79% 30.23 in 10.0 mi SSE 11.5 mph - N/A   Clear
6:14 AM 17.6 °F 3.2 °F 12.2 °F 79% 30.21 in 10.0 mi SSE 15.0 mph - N/A   Clear
6:34 AM 17.6 °F 3.2 °F 12.2 °F 79% 30.20 in 10.0 mi SSE 15.0 mph - N/A   Clear
6:55 AM 17.6 °F 2.7 °F 12.2 °F 79% 30.18 in 10.0 mi SSE 16.1 mph - N/A   Clear
8:35 AM 19.4 °F 4.1 °F 14.0 °F 80% 30.11 in 10.0 mi SSE 18.4 mph 24.2 mph N/A   Clear
8:55 AM 21.2 °F 7.8 °F 14.0 °F 74% 30.11 in 10.0 mi SSE 15.0 mph - N/A   Clear
9:14 AM 21.2 °F 9.5 °F 14.0 °F 74% 30.11 in 10.0 mi South 11.5 mph - N/A   Clear
9:35 AM 21.2 °F 10.9 °F 14.0 °F 74% 30.11 in 10.0 mi South 9.2 mph - N/A   Clear
9:55 AM 23.0 °F 12.4 °F 14.0 °F 68% 30.10 in 10.0 mi South 10.4 mph - N/A   Clear
10:14 AM 23.0 °F 11.7 °F 15.8 °F 74% 30.10 in 10.0 mi South 11.5 mph - N/A   Clear
10:35 AM 24.8 °F 14.0 °F 15.8 °F 69% 30.08 in 10.0 mi South 11.5 mph - N/A   Clear
10:55 AM 24.8 °F 12.9 °F 15.8 °F 69% 30.07 in 10.0 mi South 13.8 mph - N/A   Clear
11:14 AM 24.8 °F 11.9 °F 15.8 °F 69% 30.04 in 10.0 mi South 16.1 mph - N/A   Clear
11:35 AM 26.6 °F 13.8 °F 15.8 °F 64% 30.01 in 10.0 mi South 17.3 mph 21.9 mph N/A   Clear
11:55 AM 28.4 °F 14.1 °F 15.8 °F 59% 29.98 in 10.0 mi SSE 24.2 mph 27.6 mph N/A   Clear
12:14 PM 28.4 °F 14.1 °F 15.8 °F 59% 29.95 in 10.0 mi South 24.2 mph 29.9 mph N/A   Clear
12:35 PM 28.4 °F 13.5 °F 15.8 °F 59% 29.93 in 10.0 mi South 26.5 mph 32.2 mph N/A   Clear
12:54 PM 30.2 °F 16.5 °F 17.6 °F 60% 29.92 in 10.0 mi South 24.2 mph 27.6 mph N/A   Clear
1:15 PM 30.2 °F 17.1 °F 17.6 °F 60% 29.92 in 10.0 mi South 21.9 mph 27.6 mph N/A   Clear
1:35 PM 30.2 °F 17.4 °F 17.6 °F 60% 29.90 in 10.0 mi South 20.7 mph 26.5 mph N/A   Clear
1:54 PM 32.0 °F 18.9 °F 17.6 °F 55% 29.88 in 10.0 mi South 24.2 mph 29.9 mph N/A   Clear
2:15 PM 32.0 °F 20.1 °F 19.4 °F 60% 29.85 in 10.0 mi South 19.6 mph 27.6 mph N/A   Clear
2:35 PM 32.0 °F 20.5 °F 19.4 °F 60% 29.85 in 10.0 mi South 18.4 mph 24.2 mph N/A   Clear
2:54 PM 32.0 °F 21.2 °F 19.4 °F 60% 29.84 in 10.0 mi South 16.1 mph 21.9 mph N/A   Clear
3:15 PM 33.8 °F 23.5 °F 19.4 °F 56% 29.83 in 10.0 mi South 16.1 mph - N/A   Clear
3:35 PM 33.8 °F 23.9 °F 21.2 °F 60% 29.81 in 10.0 mi South 15.0 mph - N/A   Clear
3:54 PM 35.6 °F 25.5 °F 21.2 °F 56% 29.81 in 10.0 mi South 17.3 mph 25.3 mph N/A   Clear
4:15 PM 33.8 °F 21.9 °F 21.2 °F 60% 29.80 in 10.0 mi South 21.9 mph 26.5 mph N/A   Clear
4:35 PM 33.8 °F 23.5 °F 21.2 °F 60% 29.79 in 10.0 mi South 16.1 mph - N/A   Clear
4:54 PM 33.8 °F 22.8 °F 21.2 °F 60% 29.78 in 10.0 mi South 18.4 mph 23.0 mph N/A   Clear
5:15 PM 33.8 °F 22.5 °F 21.2 °F 60% 29.76 in 10.0 mi South 19.6 mph - N/A   Clear
5:34 PM 32.0 °F 20.1 °F 21.2 °F 64% 29.75 in 10.0 mi South 19.6 mph 24.2 mph N/A   Clear
5:55 PM 32.0 °F 20.8 °F 21.2 °F 64% 29.74 in 10.0 mi South 17.3 mph - N/A   Clear
6:15 PM 32.0 °F 21.2 °F 21.2 °F 64% 29.74 in 10.0 mi South 16.1 mph - N/A   Clear
6:34 PM 33.8 °F 23.5 °F 21.2 °F 60% 29.72 in 10.0 mi South 16.1 mph - N/A   Clear
6:55 PM 33.8 °F 23.2 °F 21.2 °F 60% 29.73 in 10.0 mi South 17.3 mph 21.9 mph N/A   Mostly Cloudy
7:15 PM 32.0 °F 21.6 °F 21.2 °F 64% 29.71 in 10.0 mi South 15.0 mph - N/A   Scattered Clouds
7:34 PM 33.8 °F 23.2 °F 21.2 °F 60% 29.70 in 10.0 mi South 17.3 mph - N/A   Mostly Cloudy
7:55 PM 33.8 °F 23.5 °F 21.2 °F 60% 29.69 in 10.0 mi South 16.1 mph - N/A   Mostly Cloudy
8:15 PM 33.8 °F 24.8 °F 23.0 °F 65% 29.69 in 10.0 mi South 12.7 mph 19.6 mph N/A   Scattered Clouds
8:34 PM 33.8 °F 23.9 °F 23.0 °F 65% 29.68 in 10.0 mi South 15.0 mph - N/A   Scattered Clouds
8:55 PM 33.8 °F 23.9 °F 24.8 °F 70% 29.68 in 10.0 mi South 15.0 mph - N/A   Scattered Clouds
9:15 PM 35.6 °F 25.9 °F 24.8 °F 65% 29.67 in 10.0 mi South 16.1 mph - N/A   Mostly Cloudy
9:34 PM 35.6 °F 25.9 °F 24.8 °F 65% 29.67 in 10.0 mi SSW 16.1 mph - N/A   Mostly Cloudy
9:55 PM 35.6 °F 25.9 °F 24.8 °F 65% 29.66 in 10.0 mi South 16.1 mph - N/A   Mostly Cloudy
10:14 PM 35.6 °F 26.2 °F 26.6 °F 70% 29.65 in 10.0 mi SSW 15.0 mph - N/A   Overcast
10:35 PM 35.6 °F 25.9 °F 28.4 °F 75% 29.65 in 10.0 mi SSW 16.1 mph 24.2 mph N/A   Overcast
10:55 PM 35.6 °F 25.5 °F 28.4 °F 75% 29.65 in 10.0 mi SSW 17.3 mph - N/A   Overcast
11:14 PM 35.6 °F 25.5 °F 28.4 °F 75% 29.65 in 10.0 mi SSW 17.3 mph - N/A   Scattered Clouds
11:35 PM 35.6 °F 26.2 °F 28.4 °F 75% 29.65 in 10.0 mi SSW 15.0 mph - N/A   Scattered Clouds
11:55 PM 35.6 °F 26.6 °F 28.4 °F 75% 29.65 in 10.0 mi SSW 13.8 mph - N/A   Mostly Cloudy